DateTimeUTC,F1_A11,F1_S11,BsB_S11,BsG_S11,BsR_S11,BbsB_S11,BbsG_S11,BbsR_S11,BaB_A11,BaG_A11,BaR_A11,Tu_S11,T_S11,Uu_S11,U_S11,P_S11,T1_A11
2021-10-05T07:00:00Z,005C0200,21000000,,,,,,,0001.48,0001.54,0001.58,16.2,23.3,,00.0,0667.6,30.6
2021-10-05T07:01:00Z,005C0200,21000000,,,,,,,0001.54,0001.36,0001.37,16.1,23.3,,00.0,0667.6,30.6
2021-10-05T07:02:00Z,005C0200,21000000,,,,,,,0001.68,0001.34,0000.87,16.1,23.3,,00.0,0667.6,30.6
2021-10-05T07:03:00Z,005C0200,61000000,,,,,,,0000.99,0000.90,0000.62,16.1,23.3,,00.0,0667.6,30.6
2021-10-05T07:04:00Z,005C0200,41000000,-000.43,0000.19,0000.04,-000.34,-000.36,0000.07,0000.14,0000.53,0000.66,16.4,23.1,,00.0,0668.6,30.6
2021-10-05T07:05:00Z,005C0200,01000000,-000.09,-000.18,0000.34,-000.20,0000.25,0000.00,0000.47,0000.33,0000.24,16.6,23.1,,00.0,0668.7,30.6
2021-10-05T07:06:00Z,005C0200,01000000,0000.48,0000.17,0000.38,0000.10,-000.20,0000.15,0001.39,0001.24,0001.15,16.6,23.1,,00.0,0668.7,30.6
2021-10-05T07:07:00Z,005C0200,01000000,0000.56,0000.45,0000.03,-000.59,-000.22,-000.26,0002.92,0002.85,0002.34,16.6,23.1,,00.0,0668.7,30.6
2021-10-05T07:08:00Z,005C0200,01000000,0001.36,0000.93,0000.55,-000.34,0000.05,-000.04,0008.08,0007.97,0006.07,16.7,23.1,,00.0,0668.7,30.6
2021-10-05T07:09:00Z,005C0200,01000000,0001.86,0001.40,0001.14,0000.41,0000.24,0000.48,0016.80,0015.55,0013.53,16.7,23.2,,00.0,0668.7,30.6
2021-10-05T07:10:00Z,005C0200,01000000,0001.01,0000.70,0000.41,-000.08,-000.17,-000.10,0009.88,0009.54,0008.23,16.7,23.2,,00.0,0668.6,30.6
2021-10-05T07:11:00Z,005C0200,01000000,0000.20,0000.32,0000.02,0000.08,0000.17,0000.15,0003.78,0003.07,0002.53,16.7,23.2,,00.0,0668.6,30.6
2021-10-05T07:12:00Z,005C0200,01000000,0000.75,-000.08,0000.36,0000.27,0000.03,0000.08,0000.75,0001.30,0001.09,16.6,23.1,,00.0,0668.6,30.6
2021-10-05T07:13:00Z,005C0200,01000000,0000.16,0000.77,0000.07,-000.11,-000.08,-000.01,0000.99,0000.66,0000.40,16.5,23.1,,00.0,0668.6,30.6
2021-10-05T07:14:00Z,005C0200,01000000,-000.14,0000.08,0000.12,-000.51,0000.10,0000.03,0001.14,0001.20,0000.89,16.4,23.0,,00.0,0668.6,30.6
2021-10-05T07:15:00Z,005C0200,01000000,0000.21,-000.00,-000.01,0000.63,0000.03,-000.20,0001.06,0000.50,0000.96,16.4,23.0,,00.0,0668.6,30.6
2021-10-05T07:16:00Z,005C0200,01000000,0000.33,-000.03,0000.02,0000.27,-000.24,0000.33,0001.05,0001.03,0000.61,16.4,23.0,,00.0,0668.6,30.6
2021-10-05T07:17:00Z,005C0200,01000000,-000.05,0000.21,0000.22,-000.02,-000.08,0000.20,0001.32,0001.86,0001.35,16.4,23.0,,00.0,0668.6,30.6
2021-10-05T07:18:00Z,005C0200,01000000,0001.09,0001.22,0000.55,0000.82,0000.36,0000.32,0008.23,0007.92,0006.58,16.4,23.0,,00.0,0668.7,30.6
2021-10-05T07:19:00Z,005C0200,01000000,0001.91,0001.51,0000.87,0000.89,0000.04,0000.21,0012.92,0011.72,0010.44,16.5,23.0,,00.0,0668.6,30.6
2021-10-05T07:20:00Z,005C0200,01000000,0001.71,0001.19,0000.58,0000.51,-000.16,0000.47,0009.44,0009.19,0007.45,16.6,23.0,,00.0,0668.7,30.6
2021-10-05T07:21:00Z,005C0200,01000000,0000.44,0000.57,0000.17,0000.37,0000.17,0000.18,0006.77,0005.99,0005.17,16.6,23.1,,00.0,0668.7,30.6
2021-10-05T07:22:00Z,005C0200,01000000,0000.22,0000.20,0000.26,-000.12,0000.06,0000.02,0000.95,0001.29,0000.79,16.7,23.1,,00.0,0668.7,30.6
2021-10-05T07:23:00Z,005C0200,01000000,-000.22,-000.01,0000.24,-000.51,-000.03,-000.11,0001.10,0000.99,0000.96,16.7,23.1,,00.0,0668.7,30.6
2021-10-05T07:24:00Z,005C0200,01000000,0002.39,0001.95,0001.00,0000.15,0000.59,0000.17,0014.78,0013.53,0011.70,16.7,23.1,,00.0,0668.7,30.6
2021-10-05T07:25:00Z,005C0200,01000000,0014.17,0010.95,0007.18,0002.63,0002.17,0002.34,0100.40,0094.94,0079.27,16.8,23.2,,00.0,0668.7,30.6
2021-10-05T07:26:00Z,005C0200,01000000,0020.36,0015.45,0009.76,0004.93,0003.96,0003.27,0163.35,0154.41,0130.38,16.7,23.2,,00.0,0668.7,30.6
2021-10-05T07:27:00Z,005C0200,01000000,0016.64,0012.10,0007.52,0004.07,0002.90,0002.00,0132.11,0124.77,0105.57,16.7,23.2,,00.0,0668.7,30.6
2021-10-05T07:28:00Z,007C0200,01000000,0014.76,0012.08,0007.57,0003.01,0002.54,0002.08,0124.36,0117.55,0098.89,16.6,23.1,,00.0,0668.7,30.6
2021-10-05T07:29:00Z,007C0200,01000000,0018.65,0013.33,0008.73,0003.53,0002.91,0002.39,0138.70,0130.87,0110.42,16.5,23.1,,00.0,0668.7,30.6
2021-10-05T07:30:00Z,007C0200,01000000,0019.72,0014.64,0009.47,0003.95,0003.44,0002.47,0147.56,0139.69,0117.72,16.5,23.0,,00.0,0668.7,30.6
2021-10-05T07:31:00Z,007C0200,01000000,0019.78,0014.61,0009.39,0004.00,0003.69,0002.82,0148.84,0140.61,0119.61,16.5,23.0,,00.0,0668.7,30.6
2021-10-05T07:32:00Z,007C0200,01000000,0017.73,0014.16,0008.99,0003.95,0002.78,0002.60,0136.10,0128.53,0109.21,16.5,23.0,,00.0,0668.7,30.6
2021-10-05T07:33:00Z,007C0200,01000000,0023.44,0016.90,0010.79,0005.00,0004.12,0002.80,0160.78,0152.83,0129.17,16.5,23.0,,00.0,0668.7,30.6
2021-10-05T07:34:00Z,007C0200,01000000,0016.95,0012.80,0007.80,0003.60,0003.00,0002.32,0135.72,0128.76,0109.40,16.6,23.0,,00.0,0668.6,30.6
2021-10-05T07:35:00Z,007C0200,01000000,0000.98,0001.44,0000.44,0000.11,0000.26,0000.24,0015.52,0015.12,0013.07,16.7,23.1,,00.0,0668.6,30.6
2021-10-05T07:36:00Z,007C0200,01000000,0000.32,0000.32,0000.29,0000.09,0000.34,0000.32,0002.70,0002.48,0001.86,16.7,23.1,,00.0,0668.6,30.6
2021-10-05T07:37:00Z,007C0200,01000000,-000.04,0000.26,0000.18,-000.45,-000.15,0000.48,0001.46,0000.69,0000.79,16.7,23.1,,00.0,0668.6,30.6
2021-10-05T07:38:00Z,007C0200,01000000,0001.00,-000.04,-000.28,-000.02,-000.28,-000.16,0000.96,0001.45,0001.06,16.8,23.1,,00.0,0668.6,30.6
2021-10-05T07:39:00Z,007C0200,01000000,-000.15,-000.29,-000.23,0000.02,-000.46,-000.18,0000.50,0000.71,0000.33,16.8,23.1,,00.0,0668.6,30.6
2021-10-05T07:40:00Z,007C0200,01000000,-000.39,0000.20,0000.09,-000.15,-000.09,0000.14,0000.71,0000.39,0000.38,16.7,23.2,,00.0,0668.6,30.6
2021-10-05T07:41:00Z,007C0200,01000000,-000.56,0000.10,0000.19,-000.20,-000.05,0000.07,0000.51,0000.55,0000.80,16.7,23.1,,00.0,0668.6,30.6
2021-10-05T07:42:00Z,007C0200,01000000,-000.03,0000.41,-000.24,-000.10,0000.27,0000.06,0000.86,0000.78,0000.31,16.6,23.1,,00.0,0668.6,30.6
2021-10-05T07:43:00Z,007C0200,01000000,0000.30,-000.01,0000.06,0000.39,0000.09,0000.25,0001.15,0001.05,0000.78,16.5,23.0,,00.0,0668.6,30.6
2021-10-05T07:44:00Z,007C0200,01000000,0000.33,0000.19,0000.04,0000.08,-000.03,0000.03,0000.62,0000.65,0000.86,16.4,23.0,,00.0,0668.6,30.6
2021-10-05T07:45:00Z,007C0200,01000000,-000.40,0000.51,0000.43,0000.14,-000.01,0000.33,0003.16,0003.01,0002.43,16.4,23.0,,00.0,0668.6,30.6
2021-10-05T07:46:00Z,007C0200,01000000,-000.23,0000.28,-000.18,0000.36,0000.06,0000.27,0004.80,0004.50,0003.85,16.4,23.0,,00.0,0668.5,30.6
2021-10-05T07:47:00Z,007C0200,01000000,-000.50,0000.08,0000.16,-000.43,-000.29,0000.03,0001.21,0001.37,0001.09,16.4,23.0,,00.0,0668.5,30.6
2021-10-05T07:48:00Z,007C0200,01000000,0000.45,0000.21,-000.10,-000.65,-000.05,-000.12,0001.51,0001.24,0000.94,16.5,23.0,,00.0,0668.5,30.6
2021-10-05T07:49:00Z,007C0200,01000000,0000.05,0000.43,0000.26,-000.03,0000.26,0000.09,0000.84,0000.65,0000.59,16.5,23.0,,00.0,0668.5,30.6
2021-10-05T07:50:00Z,007C0200,01000000,0000.15,0000.03,-000.02,0000.06,-000.05,0000.20,0000.01,0000.02,0000.33,16.6,23.0,,00.0,0668.6,30.6
2021-10-05T07:51:00Z,007C0200,01000000,0000.22,0000.20,0000.06,-000.37,-000.20,-000.15,0000.66,0000.73,0000.58,16.6,23.1,,00.0,0668.6,30.6
2021-10-05T07:52:00Z,007C0200,01000000,-000.00,0000.21,-000.13,-000.07,0000.09,0000.23,0001.21,0001.01,0000.73,16.7,23.1,,00.0,0668.6,30.6
2021-10-05T07:53:00Z,007C0200,01000000,-000.57,0000.29,0000.28,-000.05,-000.18,0000.20,0001.29,0001.16,0001.45,16.7,23.1,,00.0,0668.6,30.6
2021-10-05T07:54:00Z,007C0200,01000000,0000.75,0000.51,-000.06,0000.37,0000.04,0000.07,0001.05,0001.42,0000.54,16.7,23.1,,00.0,0668.6,30.6
2021-10-05T07:55:00Z,007C0200,01000000,-000.18,0000.20,0000.10,-000.65,0000.12,-000.10,0000.91,0000.14,0000.50,16.8,23.1,,00.0,0668.6,30.6
2021-10-05T07:56:00Z,007C0200,01000000,-000.47,0000.23,-000.06,0000.02,-000.02,0000.00,-000.41,0000.03,-000.08,16.7,23.1,,00.0,0668.5,30.6
2021-10-05T07:57:00Z,007C0200,41000000,,,,,,,0000.45,0000.40,-000.03,16.7,23.1,,00.0,0668.5,30.6
2021-10-05T07:58:00Z,007C0200,61000000,,,,,,,0000.75,0000.60,0000.54,16.2,23.2,,00.0,0667.5,30.6
2021-10-05T07:59:00Z,007C0200,21000000,,,,,,,0000.57,0000.87,0000.70,16.1,23.3,,00.0,0667.5,30.6
